Welcome to the New NWS' Forecast!
Most changes are behind the scenes, but click here for differences you might notice.
Latest weather observations around

Alexander City, Thomas C Russell Field Airport (KALX)

Using English Units (Switch to International System of Units)
Date/ Time (CST) Wind (mph) Vis. (mi) Weather Sky Cond. Temp (°F) Rel. Humidity Wind Chill (°F) Heat Index (°F) Pressure Precip. (in)
Air Dwpt 6 hour Altimeter (inHg) Sea level (inHg) 1 hr 3 hr 6 hr
Max Min
Nov 18 01:55 Calm 10 Cloudy OVC031 48 46     93%     30.02        
Nov 18 01:35 Calm 10 Cloudy OVC031 47 45     94%     30.02        
Nov 18 01:15 Calm 10 Cloudy OVC031 47 45     93%     30.03        
Nov 18 00:55 Calm 10 Cloudy OVC031 46 44     92%     30.02        
Nov 18 00:35 Calm 10 Partly Cloudy SCT033 45 43     93%     30.03        
Nov 18 00:15 Calm 10 Clear CLR 45 43     93%     30.03        
Nov 17 23:55 Calm 10 Clear CLR 44 43     94%     30.04        
Nov 17 23:35 Calm 10 Clear CLR 44 42     95%     30.04        
Nov 17 23:15 Calm 10 Clear CLR 44 42     93%     30.04        
Nov 17 22:55 Calm 10 Clear CLR 44 42     93%     30.05        
Nov 17 22:35 Calm 10 Clear CLR 44 42     91%     30.06        
Nov 17 22:15 Calm 10 Clear CLR 43 42     94%     30.06        
Nov 17 21:55 Calm 10 Clear CLR 43 41     93%     30.06        
Nov 17 21:35 Calm 10 Clear CLR 43 41     94%     30.07        
Nov 17 21:15 Calm 10 Clear CLR 43 41     94%     30.07        
Nov 17 20:55 Calm 10 Clear CLR 44 43     95%     30.07        
Nov 17 20:35 Calm 10 Clear CLR 43 42     95%     30.08        
Nov 17 20:15 Calm 10 Clear CLR 43 42     93%     30.07        
Nov 17 19:55 Calm 10 Clear CLR 44 42     93%     30.08        
Nov 17 19:35 Calm 10 Clear CLR 45 43     93%     30.08        
Nov 17 19:15 Calm 10 Clear CLR 45 43     92%     30.09        
Nov 17 18:55 Calm 10 Clear CLR 46 43     90%     30.09        
Nov 17 18:35 Calm 10 Clear CLR 47 44     89%     30.09        
Nov 17 18:15 Calm 10 Clear CLR 48 45     88%     30.09        
Nov 17 17:55 Calm 10 Clear CLR 49 46     88%     30.08        
Nov 17 17:35 Calm 10 Clear CLR 50 45     83%     30.08        
Nov 17 17:15 Calm 10 Clear CLR 52 45     79%     30.07        
Nov 17 16:55 Calm 10 Clear CLR 55 45     69%     30.07        
Nov 17 16:35 Calm 10 Clear CLR 58 45     62%     30.07        
Nov 17 16:15 Calm 10 Clear CLR 61 43     52%     30.07        
Nov 17 15:55 Calm 10 Clear CLR 64 41     44%     30.06        
Nov 17 15:35 SE 3 10 Clear CLR 65 39     38%     30.07        
Nov 17 15:15 SE 3 10 Clear CLR 66 38     35%     30.06        
Nov 17 14:55 ESE 3 10 Clear CLR 66 39     37%     30.07        
Nov 17 14:35 Calm 10 Clear CLR 66 38     36%     30.08        
Nov 17 14:15 SW 5 10 Clear CLR 66 40     39%     30.08        
Nov 17 13:55 SSE 3 10 Clear CLR 66 36     32%     30.08        
Nov 17 13:35 Calm 10 Clear CLR 66 36     33%     30.09        
Nov 17 13:15 ESE 5 10 Clear CLR 65 37     35%     30.1        
Nov 17 12:55 Calm 10 Clear CLR 65 38     37%     30.1        
Nov 17 12:35 Calm 10 Clear CLR 64 39     40%     30.11        
Nov 17 12:15 SSE 3 10 Clear CLR 64 40     42%     30.11        
Nov 17 11:55 NE 5 10 Clear CLR 63 40     42%     30.12        
Nov 17 11:35 Calm 10 Clear CLR 61 39     44%     30.13        
Nov 17 11:15 Calm 10 Clear CLR 61 40     45%     30.14        
Nov 17 10:55 NE 3 10 Clear CLR 60 40     47%     30.16        
Nov 17 10:35 Calm 10 Clear CLR 59 39     47%     30.17        
Nov 17 10:15 E 3 10 Clear CLR 58 39     50%     30.18        
Nov 17 09:55 ENE 5 10 Clear CLR 56 40     55%     30.19        
Nov 17 09:35 NE 3 10 Clear CLR 55 40     57%     30.19        
Nov 17 09:15 E 3 10 Clear CLR 53 41     63%     30.19        
Nov 17 08:55 Calm 10 Clear CLR 51 40     68%     30.19        
Nov 17 08:35 Calm 10 Clear CLR 48 40     74%     30.2        
Nov 17 08:15 Calm 10 Clear CLR 46 40     77%     30.19        
Nov 17 07:55 Calm 10 Clear CLR 44 39     85%     30.19        
Nov 17 07:35 Calm 10 Clear CLR 38 37     95%     30.19        
Nov 17 07:15 Calm 10 Clear CLR 37 36     96%     30.19        
Nov 17 06:55 Calm 10 Clear CLR 34 32     95%     30.19        
Nov 17 06:35 Calm 10 Partly Cloudy SCT001 33 32     96%     30.17        
Nov 17 06:15 Calm 7 Partly Cloudy SCT001 34 33     98%     30.16        
Nov 17 05:55 Calm 10 Clear CLR 32 32     99%     30.16        
Nov 17 05:35 Calm 10 Clear CLR 34 33     96%     30.16        
Nov 17 05:15 Calm 10 Clear CLR 35 35     98%     30.16        
Nov 17 04:55 Calm 10 Clear CLR 35 34     96%     30.15        
Nov 17 04:35 Calm 10 Clear CLR 34 33     96%     30.15        
Nov 17 04:15 Calm 10 Clear CLR 35 35     96%     30.14        
Nov 17 03:55 Calm 10 Clear CLR 37 36     97%     30.13        
Nov 17 03:35 Calm 10 Clear CLR 36 35     96%     30.13        
Nov 17 03:15 Calm 10 Clear CLR 35 33     94%     30.13        
Nov 17 02:55 Calm 10 Clear CLR 38 38     97%     30.14        
Nov 17 02:35 Calm 10 Clear CLR 39 38     97%     30.14        
Nov 17 02:15 Calm 5 Fog/Mist CLR 39 38     98%     30.14        
Nov 17 01:55 Calm 7 Clear CLR 39 38     95%     30.14        
Nov 17 01:35 Calm 7 Clear CLR 39 39     98%     30.14        
Nov 17 01:15 Calm 4 Fog/Mist CLR 39 38     97%     30.14        
Nov 17 00:55 Calm 7 Clear CLR 40 39     95%     30.14        
Nov 17 00:35 Calm 10 Clear CLR 40 39     96%     30.15        
Nov 17 00:15 Calm 10 Clear CLR 42 41     96%     30.15        
Nov 16 23:55 Calm 10 Clear CLR 41 40     95%     30.15        
Nov 16 23:35 Calm 10 Clear CLR 42 40     94%     30.15        
Nov 16 23:15 Calm 7 Clear CLR 43 42     97%     30.15        
Nov 16 22:55 Calm 10 Clear CLR 44 43     97%     30.15        
Nov 16 22:35 Calm 7 Clear CLR 44 43     97%     30.15        
Nov 16 22:15 Calm 7 Clear CLR 45 44     97%     30.14        
Nov 16 21:55 Calm 7 Clear CLR 44 43     97%     30.14        
Nov 16 21:35 Calm 5 Fog/Mist CLR 45 45     97%     30.14        
Nov 16 21:15 Calm 5 Fog/Mist CLR 47 46     97%     30.14        
Nov 16 20:55 Calm 7 Clear CLR 48 47     97%     30.14        
Nov 16 20:30 Calm 7 Clear CLR 47 45     96%     30.14        
Nov 16 20:10 Calm 10 Clear CLR 49 47     95%     30.13        
Nov 16 19:55 Calm 7 Clear CLR 50 49     95%     30.13        
Nov 16 19:35 Calm 10 Clear CLR 48 47     95%     30.12        
Nov 16 19:15 Calm 5 Fog/Mist CLR 49 47     95%     30.13        
Nov 16 18:55 Calm 10 Clear CLR 49 48     95%     30.12        
Nov 16 18:35 Calm 10 Clear CLR 50 48     95%     30.13        
Nov 16 18:15 Calm 7 Clear CLR 52 51     95%     30.12        
Nov 16 17:55 Calm 10 Clear CLR 51 50     94%     30.12        
Nov 16 17:35 Calm 10 Clear CLR 54 51     92%     30.12        
Nov 16 17:15 Calm 10 Clear CLR 54 51     91%     30.11        
Nov 16 16:55 Calm 7 Clear CLR 57 51     81%     30.11        
Nov 16 16:35 W 3 10 Clear CLR 60 51     72%     30.11        
Nov 16 16:15 WNW 3 10 Clear CLR 62 51     66%     30.11        
Nov 16 15:55 WNW 3 10 Clear CLR 64 51     62%     30.11        
Nov 16 15:35 W 6 10 Clear CLR 64 50     59%     30.11        
Nov 16 15:15 NNW 5 10 Clear CLR 64 49     58%     30.1        
Nov 16 14:55 WNW 7 10 Clear CLR 65 50     59%     30.1        
Nov 16 14:35 NW 5 10 Partly Cloudy SCT032 65 51     59%     30.1        
Nov 16 14:15 NNW 8 10 Partly Cloudy SCT032 65 51     60%     30.1        
Nov 16 13:55 NW 8 10 Mostly Cloudy BKN032 65 51     60%     30.1        
Nov 16 13:30 NNW 14 10 Mostly Cloudy BKN032 65 51     61%     30.11        
Nov 16 13:15 WNW 9 10 Cloudy OVC032 65 51     60%     30.11        
Nov 16 12:55 NNW 9 10 Cloudy OVC032 64 51     62%     30.12        
Nov 16 12:35 NNW 5 10 Cloudy OVC032 64 51     64%     30.12        
Nov 16 12:15 NNW 6 10 Cloudy OVC032 63 51     65%     30.12        
Nov 16 11:55 NW 3 10 Cloudy OVC030 63 51     66%     30.13        
Nov 16 11:35 Calm 10 Cloudy OVC030 61 51     68%     30.14        
Nov 16 11:15 Calm 10 Cloudy OVC030 60 50     69%     30.15        
Nov 16 10:55 N 3 10 Cloudy OVC030 59 49     70%     30.17        
Nov 16 10:35 N 3 10 Cloudy OVC028 59 49     70%     30.17        
Nov 16 10:15 Calm 10 Cloudy OVC028 59 49     71%     30.18        
Nov 16 09:55 N 5 10 Cloudy OVC028 58 49     71%     30.18        
Nov 16 09:35 NE 6 10 Mostly Cloudy BKN028 57 48     72%     30.18        
Nov 16 09:15 Calm 10 Mostly Cloudy BKN028 56 48     73%     30.18        
Nov 16 08:55 Calm 10 Cloudy OVC028 55 48     77%     30.17        
Nov 16 08:35 Calm 10 Cloudy OVC028 54 49     83%     30.17        
Nov 16 08:15 Calm 7 Cloudy OVC028 53 49     87%     30.17        
Nov 16 07:55 Calm 7 Cloudy OVC028 51 48     89%     30.16        
Nov 16 07:35 Calm 4 Fog/Mist BKN028 49 47     92%     30.16        
Nov 16 07:15 Calm 5 Fog/Mist SCT030 45 44     97%     30.16        
Nov 16 06:55 Calm 5 Fog/Mist CLR 45 44     96%     30.15        
Nov 16 06:35 Calm 5 Fog/Mist SCT030 44 43     97%     30.15        
Nov 16 06:15 Calm 5 Fog/Mist SCT030 44 44     98%     30.14        
Nov 16 05:55 Calm 7 Clear CLR 45 44     98%     30.14        
Nov 16 05:35 Calm 7 Clear CLR 45 44     98%     30.14        
Nov 16 05:15 Calm 5 Fog/Mist CLR 45 45     98%     30.13        
Nov 16 04:55 Calm 7 Clear CLR 46 45     99%     30.13        
Nov 16 04:35 Calm 5 Fog/Mist CLR 47 46     98%     30.12        
Nov 16 04:15 Calm 7 Partly Cloudy SCT030 47 46     97%     30.12        
Nov 16 03:55 Calm 7 Partly Cloudy SCT030 49 48     97%     30.12        
Nov 16 03:35 Calm 10 Partly Cloudy SCT065 49 48     94%     30.12        
Nov 16 03:15 Calm 10 Cloudy OVC065 51 49     94%     30.11        
Nov 16 02:55 Calm 10 Cloudy OVC065 51 49     92%     30.11        
Nov 16 02:35 Calm 10 Cloudy OVC065 51 49     93%     30.11        
Nov 16 02:15 Calm 10 Cloudy SCT055 OVC065 51 49     92%     30.11        
Nov 16 01:55 Calm 10 Cloudy SCT055 OVC065 50 49     94%     30.11        
Nov 16 01:35 Calm 10 Cloudy OVC075 51 49     92%     30.11        
Nov 16 01:15 Calm 10 Cloudy OVC075 51 49     94%     30.11        
Nov 16 00:55 Calm 10 Cloudy OVC075 51 48     92%     30.11        
Nov 16 00:35 Calm 10 Cloudy OVC085 51 48     90%     30.11        
Nov 16 00:15 Calm 10 Cloudy OVC085 51 49     94%     30.11        
Nov 15 23:55 Calm 10 Cloudy SCT060 OVC085 50 49     95%     30.12        
Nov 15 23:35 Calm 10 Cloudy OVC060 50 48     94%     30.12        
Nov 15 23:15 Calm 10 Mostly Cloudy BKN060 BKN090 50 48     94%     30.12        
Nov 15 22:55 Calm 10 Cloudy OVC060 50 48     92%     30.12        
Nov 15 22:35 Calm 7 Cloudy BKN065 OVC070 50 48     93%     30.12        
Nov 15 22:15 Calm 10 Cloudy OVC065 50 47     92%     30.13        
Nov 15 21:55 Calm 10 Cloudy BKN065 OVC075 49 47     94%     30.14        
Nov 15 21:35 Calm 10 Cloudy SCT065 OVC075 48 47     95%     30.13        
Nov 15 21:15 Calm 10 Mostly Cloudy BKN075 48 47     93%     30.13        
Nov 15 20:55 Calm 10 Mostly Cloudy BKN075 BKN085 47 46     95%     30.13        
Nov 15 20:35 Calm 10 Partly Cloudy SCT075 47 45     95%     30.12        
Nov 15 20:15 Calm 10 Mostly Cloudy SCT075 BKN080 48 46     93%     30.12        
Nov 15 19:55 Calm 10 Mostly Cloudy SCT075 BKN090 46 45     96%     30.12        
Nov 15 19:35 Calm 10 Partly Cloudy SCT075 47 46     94%     30.12        
Nov 15 19:15 Calm 10 Mostly Cloudy BKN075 46 44     95%     30.12        
Nov 15 18:55 Calm 10 Clear CLR 47 45     93%     30.12        
Nov 15 18:35 Calm 10 Partly Cloudy SCT120 47 45     93%     30.12        
Nov 15 18:15 Calm 10 Partly Cloudy SCT120 50 47     89%     30.11        
Nov 15 17:55 Calm 10 Partly Cloudy SCT001 SCT120 49 46     91%     30.12        
Nov 15 17:35 Calm 10 Partly Cloudy SCT003 50 46     86%     30.11        
Nov 15 17:15 Calm 10 Partly Cloudy SCT003 51 47     85%     30.11        
Nov 15 16:55 Calm 10 Partly Cloudy SCT003 53 47     81%     30.11        
Nov 15 16:35 Calm 10 Partly Cloudy SCT001 SCT005 55 46     73%     30.11        
Nov 15 16:15 Calm 10 Clear CLR 59 45     60%     30.09        
Nov 15 15:55 Calm 10 Partly Cloudy SCT004 59 44     58%     30.09        
Nov 15 15:35 SE 3 10 Clear CLR 60 43     54%     30.08        
Nov 15 15:15 Calm 10 Partly Cloudy SCT005 SCT009 60 43     52%     30.09        
Nov 15 14:55 Calm 10 Partly Cloudy SCT005 60 43     54%     30.1        
Nov 15 14:35 Calm 10 Clear CLR 60 42     52%     30.1        
Nov 15 14:15 WNW 3 10 Partly Cloudy SCT003 SCT008 60 42     53%     30.1        
Nov 15 13:55 Calm 10 Partly Cloudy SCT003 SCT006 60 42     52%     30.1        
Nov 15 13:35 SSW 6 10 Partly Cloudy SCT003 59 43     55%     30.11        
Nov 15 13:15 SSW 5 10 Clear CLR 59 43     56%     30.11        
Nov 15 12:55 Calm 10 Clear CLR 57 42     57%     30.12        
Nov 15 12:35 SSW 7 10 Clear CLR 58 42     56%     30.12        
Nov 15 12:15 SSE 3 10 Clear CLR 57 42     57%     30.12        
Nov 15 11:55 S 6 10 Clear CLR 56 42     59%     30.13        
Nov 15 11:35 Calm 10 Clear CLR 56 41     58%     30.14        
Nov 15 11:15 ESE 3 10 Clear CLR 55 40     58%     30.16        
Nov 15 10:55 Calm 10 Clear CLR 54 41     61%     30.17        
Nov 15 10:35 ESE 6 10 Clear CLR 54 42     62%     30.18        
Nov 15 10:15 SE 7 10 Clear CLR 53 41     63%     30.19        
Nov 15 09:55 E 3 10 Clear CLR 52 41     66%     30.2        
Nov 15 09:35 E 5 10 Clear CLR 51 42     70%     30.2        
Nov 15 09:15 E 7 10 Clear CLR 50 41     72% 47   30.21        
Nov 15 08:55 ESE 6 10 Clear CLR 49 41     75% 47   30.2        
Nov 15 08:35 ESE 6 10 Clear CLR 48 41     77% 46   30.21        
Nov 15 08:15 E 3 10 Clear CLR 47 42     83% 46   30.21        
Nov 15 07:55 E 3 10 Clear CLR 45 42     88% 44   30.21        
Nov 15 07:35 NE 5 10 Clear CLR 44 42     93% 41   30.21        
Nov 15 07:15 Calm 10 Clear CLR 41 40     96%     30.21        
Nov 15 06:55 NNW 3 7 Clear CLR 40 40     97% 38   30.21        
Nov 15 06:35 Calm 5 Fog/Mist CLR 38 37     97%     30.2        
Nov 15 06:15 Calm 7 Clear CLR 41 40     97%     30.19        
Nov 15 05:55 Calm 7 Clear CLR 39 38     97%     30.19        
Nov 15 05:35 Calm 10 Clear CLR 40 39     98%     30.18        
Nov 15 05:15 Calm 5 Fog/Mist CLR 38 37     97%     30.17        
Nov 15 04:55 Calm 7 Clear CLR 38 38     98%     30.17        
Nov 15 04:35 Calm 10 Clear CLR 41 40     97%     30.17        
Nov 15 04:15 Calm 7 Clear CLR 39 38     97%     30.18        
Nov 15 03:55 Calm 10 Clear CLR 41 40     97%     30.18        
Nov 15 03:35 Calm 7 Clear CLR 40 40     99%     30.18        
Nov 15 03:15 Calm 7 Clear CLR 42 41     98%     30.18        
Nov 15 02:55 Calm 7 Clear CLR 41 40     99%     30.18        
Nov 15 02:35 Calm 10 Clear CLR 41 40     96%     30.18        
Nov 15 02:15 Calm 5 Fog/Mist CLR 42 41     97%     30.18        
Jun 12 07:15 Calm 10 Mostly Cloudy BKN004 74 72     94%   75 30.18        
Jun 12 05:35 Calm 10 Mostly Cloudy BKN011 70 69     96%     30.16        
Jun 12 01:15 Calm 10 Partly Cloudy SCT033 72 71     96%   74 30.15        
Jun 11 17:55 ESE 3 10 Clear CLR 85 69     60%   89 30.09        
Jun 11 16:55 SE 6 10 Clear   87 68     54%   91 30.11        
Jun 11 16:15 SE 5 10 Clear CLR 87 68     54%   91 30.13        
Jun 11 14:55 SE 6 10 Clear   86 68     54%   90 30.14        
Notice The following observation data may not be complete
Jun 11 05:15   10 Clear CLR          %              
Jun 10 10:15 SE 3 10 Clear CLR 81 62     53%   82 30.11        
Notice The following observation data may not be complete
Jun 09 16:15   10 Partly Cloudy SCT055 SCT065          %              
Jun 08 17:35 NNW 3 10 Clear CLR 80 57     46%   79 29.86        
Notice The following observation data may not be complete
Jun 08 12:15   10 Clear CLR          %              
Notice The following observation data may not be complete
Jun 08 11:15   10 Partly Cloudy SCT035          %              
Jun 08 09:15 SE 3 10 Partly Cloudy SCT041 69 60     71%     29.93        
Notice The following observation data may not be complete
Jun 08 07:55   10 Partly Cloudy SCT040 SCT090          %              
Jun 08 07:35 Calm 10 Clear CLR 65 59     83%     29.92        
Jun 07 20:55 N 5 10 Clear CLR 72 59     63%   72 29.85        
Jun 07 15:15 E 7 10 Partly Cloudy SCT032 SCT060 78 67     68%   79 29.79        
Jun 07 10:55 E 6 10 Mostly Cloudy BKN024 BKN031 76 66     73%   76 29.81        
Jun 06 03:35 Calm 5 Fog/Mist OVC004 71 71     99%   73 29.79        
Jun 06 00:55 Calm 7 Cloudy OVC002 72 71     98%   73 29.83       0
Notice The following observation data may not be complete
Jun 05 18:35   10 Partly Cloudy SCT012          %              
Jun 05 16:35 WSW 5 10 Partly Cloudy SCT018 76 71     82%   78 29.83        
Jun 05 15:15 S 9 10 Partly Cloudy SCT040 78 70     75%   80 29.81